Year,Month,Day,Hour,Minute,Value (Times are PST for temperature in C)
2009,05,24,00,00,11.50
2009,05,24,00,01,11.50
2009,05,24,00,02,11.40
2009,05,24,00,03,11.40
2009,05,24,00,04,11.30
2009,05,24,00,05,11.30
2009,05,24,00,06,11.30
2009,05,24,00,07,11.20
2009,05,24,00,08,11.20
2009,05,24,00,09,11.20
2009,05,24,00,10,11.10
2009,05,24,00,11,11.10
2009,05,24,00,12,11.10
2009,05,24,00,13,11.00
2009,05,24,00,14,11.00
2009,05,24,00,15,10.90
2009,05,24,00,16,10.90
2009,05,24,00,17,10.90
2009,05,24,00,18,10.90
2009,05,24,00,19,10.90
2009,05,24,00,20,10.80
2009,05,24,00,21,10.80
2009,05,24,00,22,10.80
2009,05,24,00,23,10.70
2009,05,24,00,24,10.70
2009,05,24,00,25,10.70
2009,05,24,00,26,10.70
2009,05,24,00,27,10.60
2009,05,24,00,28,10.60
2009,05,24,00,29,10.60
2009,05,24,00,30,10.60
2009,05,24,00,31,10.60
2009,05,24,00,32,10.50
2009,05,24,00,33,10.50
2009,05,24,00,34,10.50
2009,05,24,00,35,10.40
2009,05,24,00,36,10.40
2009,05,24,00,37,10.40
2009,05,24,00,38,10.40
2009,05,24,00,39,10.40
2009,05,24,00,40,10.30
2009,05,24,00,41,10.30
2009,05,24,00,42,10.30
2009,05,24,00,43,10.20
2009,05,24,00,44,10.20
2009,05,24,00,45,10.20
2009,05,24,00,46,10.10
2009,05,24,00,47,10.10
2009,05,24,00,48,10.10
2009,05,24,00,49,10.00
2009,05,24,00,50,10.00
2009,05,24,00,51,10.00
2009,05,24,00,52,9.90
2009,05,24,00,53,9.90
2009,05,24,00,54,9.90
2009,05,24,00,55,9.90
2009,05,24,00,56,9.80
2009,05,24,00,57,9.80
2009,05,24,00,58,9.80
2009,05,24,00,59,9.80
2009,05,24,01,00,9.80
2009,05,24,01,01,9.80
2009,05,24,01,02,9.80
2009,05,24,01,03,9.70
2009,05,24,01,04,9.70
2009,05,24,01,05,9.70
2009,05,24,01,06,9.70
2009,05,24,01,07,9.70
2009,05,24,01,08,9.70
2009,05,24,01,09,9.70
2009,05,24,01,10,9.70
2009,05,24,01,11,9.70
2009,05,24,01,12,9.70
2009,05,24,01,13,9.60
2009,05,24,01,14,9.60
2009,05,24,01,15,9.60
2009,05,24,01,16,9.60
2009,05,24,01,17,9.60
2009,05,24,01,18,9.60
2009,05,24,01,19,9.60
2009,05,24,01,20,9.60
2009,05,24,01,21,9.50
2009,05,24,01,22,9.50
2009,05,24,01,23,9.40
2009,05,24,01,24,9.40
2009,05,24,01,25,9.40
2009,05,24,01,26,9.40
2009,05,24,01,27,9.30
2009,05,24,01,28,9.30
2009,05,24,01,29,9.30
2009,05,24,01,30,9.40
2009,05,24,01,31,9.40
2009,05,24,01,32,9.40
2009,05,24,01,33,9.40
2009,05,24,01,34,9.40
2009,05,24,01,35,9.40
2009,05,24,01,36,9.40
2009,05,24,01,37,9.40
2009,05,24,01,38,9.40
2009,05,24,01,39,9.40
2009,05,24,01,40,9.30
2009,05,24,01,41,9.30
2009,05,24,01,42,9.30
2009,05,24,01,43,9.20
2009,05,24,01,44,9.20
2009,05,24,01,45,9.20
2009,05,24,01,46,9.20
2009,05,24,01,47,9.20
2009,05,24,01,48,9.20
2009,05,24,01,49,9.20
2009,05,24,01,50,9.20
2009,05,24,01,51,9.20
2009,05,24,01,52,9.20
2009,05,24,01,53,9.10
2009,05,24,01,54,9.10
2009,05,24,01,55,9.10
2009,05,24,01,56,9.10
2009,05,24,01,57,9.10
2009,05,24,01,58,9.10
2009,05,24,01,59,9.10
2009,05,24,02,00,9.10
2009,05,24,02,01,9.10
2009,05,24,02,02,9.10
2009,05,24,02,03,9.00
2009,05,24,02,04,9.00
2009,05,24,02,05,9.00
2009,05,24,02,06,9.00
2009,05,24,02,07,9.00
2009,05,24,02,08,8.90
2009,05,24,02,09,8.90
2009,05,24,02,10,8.90
2009,05,24,02,11,8.90
2009,05,24,02,12,8.90
2009,05,24,02,13,8.80
2009,05,24,02,14,8.80
2009,05,24,02,15,8.80
2009,05,24,02,16,8.90
2009,05,24,02,17,8.90
2009,05,24,02,18,8.90
2009,05,24,02,19,8.90
2009,05,24,02,20,8.90
2009,05,24,02,21,8.80
2009,05,24,02,22,8.80
2009,05,24,02,23,8.80
2009,05,24,02,24,8.70
2009,05,24,02,25,8.70
2009,05,24,02,26,8.70
2009,05,24,02,27,8.70
2009,05,24,02,28,8.70
2009,05,24,02,29,8.70
2009,05,24,02,30,8.70
2009,05,24,02,31,8.70
2009,05,24,02,32,8.70
2009,05,24,02,33,8.70
2009,05,24,02,34,8.70
2009,05,24,02,35,8.70
2009,05,24,02,36,8.70
2009,05,24,02,37,8.60
2009,05,24,02,38,8.60
2009,05,24,02,39,8.60
2009,05,24,02,40,8.60
2009,05,24,02,41,8.60
2009,05,24,02,42,8.50
2009,05,24,02,43,8.50
2009,05,24,02,44,8.40
2009,05,24,02,45,8.40
2009,05,24,02,46,8.40
2009,05,24,02,47,8.30
2009,05,24,02,48,8.30
2009,05,24,02,49,8.30
2009,05,24,02,50,8.30
2009,05,24,02,51,8.30
2009,05,24,02,52,8.20
2009,05,24,02,53,8.20
2009,05,24,02,54,8.20
2009,05,24,02,55,8.20
2009,05,24,02,56,8.20
2009,05,24,02,57,8.20
2009,05,24,02,58,8.20
2009,05,24,02,59,8.10
2009,05,24,03,00,8.10
2009,05,24,03,01,8.10
2009,05,24,03,02,8.10
2009,05,24,03,03,8.10
2009,05,24,03,04,8.10
2009,05,24,03,05,8.10
2009,05,24,03,06,8.00
2009,05,24,03,07,8.00
2009,05,24,03,08,8.00
2009,05,24,03,09,8.00
2009,05,24,03,10,8.00
2009,05,24,03,11,7.90
2009,05,24,03,12,7.90
2009,05,24,03,13,7.90
2009,05,24,03,14,7.90
2009,05,24,03,15,7.90
2009,05,24,03,16,8.00
2009,05,24,03,17,7.90
2009,05,24,03,18,7.90
2009,05,24,03,19,8.00
2009,05,24,03,20,8.00
2009,05,24,03,21,8.00
2009,05,24,03,22,8.00
2009,05,24,03,23,8.00
2009,05,24,03,24,8.00
2009,05,24,03,25,8.00
2009,05,24,03,26,8.00
2009,05,24,03,27,8.00
2009,05,24,03,28,8.00
2009,05,24,03,29,8.00
2009,05,24,03,30,8.00
2009,05,24,03,31,8.00
2009,05,24,03,32,8.00
2009,05,24,03,33,8.00
2009,05,24,03,34,8.00
2009,05,24,03,35,8.00
2009,05,24,03,36,8.00
2009,05,24,03,37,7.90
2009,05,24,03,38,7.90
2009,05,24,03,39,7.90
2009,05,24,03,40,7.90
2009,05,24,03,41,7.90
2009,05,24,03,42,7.90
2009,05,24,03,43,7.90
2009,05,24,03,44,7.90
2009,05,24,03,45,7.80
2009,05,24,03,46,7.80
2009,05,24,03,47,7.80
2009,05,24,03,48,7.80
2009,05,24,03,49,7.80
2009,05,24,03,50,7.80
2009,05,24,03,51,7.80
2009,05,24,03,52,7.70
2009,05,24,03,53,7.70
2009,05,24,03,54,7.70
2009,05,24,03,55,7.70
2009,05,24,03,56,7.60
2009,05,24,03,57,7.60
2009,05,24,03,58,7.60
2009,05,24,03,59,7.50
2009,05,24,04,00,7.50
2009,05,24,04,01,7.40
2009,05,24,04,02,7.40
2009,05,24,04,03,7.40
2009,05,24,04,04,7.40
2009,05,24,04,05,7.40
2009,05,24,04,06,7.40
2009,05,24,04,07,7.40
2009,05,24,04,08,7.40
2009,05,24,04,09,7.40
2009,05,24,04,10,7.40
2009,05,24,04,11,7.40
2009,05,24,04,12,7.40
2009,05,24,04,13,7.40
2009,05,24,04,14,7.40
2009,05,24,04,15,7.40
2009,05,24,04,16,7.40
2009,05,24,04,17,7.40
2009,05,24,04,18,7.40
2009,05,24,04,19,7.40
2009,05,24,04,20,7.40
2009,05,24,04,21,7.40
2009,05,24,04,22,7.40
2009,05,24,04,23,7.40
2009,05,24,04,24,7.40
2009,05,24,04,25,7.40
2009,05,24,04,26,7.40
2009,05,24,04,27,7.40
2009,05,24,04,28,7.40
2009,05,24,04,29,7.40
2009,05,24,04,30,7.40
2009,05,24,04,31,7.40
2009,05,24,04,32,7.40
2009,05,24,04,33,7.30
2009,05,24,04,34,7.30
2009,05,24,04,35,7.30
2009,05,24,04,36,7.30
2009,05,24,04,37,7.20
2009,05,24,04,38,7.20
2009,05,24,04,39,7.20
2009,05,24,04,40,7.20
2009,05,24,04,41,7.20
2009,05,24,04,42,7.30
2009,05,24,04,43,7.30
2009,05,24,04,44,7.30
2009,05,24,04,45,7.20
2009,05,24,04,46,7.20
2009,05,24,04,47,7.20
2009,05,24,04,48,7.20
2009,05,24,04,49,7.20
2009,05,24,04,50,7.20
2009,05,24,04,51,7.20
2009,05,24,04,52,7.20
2009,05,24,04,53,7.20
2009,05,24,04,54,7.20
2009,05,24,04,55,7.20
2009,05,24,04,56,7.20
2009,05,24,04,57,7.20
2009,05,24,04,58,7.30
2009,05,24,04,59,7.30
2009,05,24,05,00,7.30
2009,05,24,05,01,7.20
2009,05,24,05,02,7.20
2009,05,24,05,03,7.20
2009,05,24,05,04,7.20
2009,05,24,05,05,7.20
2009,05,24,05,06,7.20
2009,05,24,05,07,7.20
2009,05,24,05,08,7.20
2009,05,24,05,09,7.10
2009,05,24,05,10,7.10
2009,05,24,05,11,7.10
2009,05,24,05,12,7.10
2009,05,24,05,13,7.10
2009,05,24,05,14,7.10
2009,05,24,05,15,7.10
2009,05,24,05,16,7.10
2009,05,24,05,17,7.10
2009,05,24,05,18,7.10
2009,05,24,05,19,7.10
2009,05,24,05,20,7.10
2009,05,24,05,21,7.10
2009,05,24,05,22,7.10
2009,05,24,05,23,7.00
2009,05,24,05,24,7.00
2009,05,24,05,25,7.00
2009,05,24,05,26,6.90
2009,05,24,05,27,6.90
2009,05,24,05,28,6.90
2009,05,24,05,29,6.90
2009,05,24,05,30,6.90
2009,05,24,05,31,6.90
2009,05,24,05,32,6.90
2009,05,24,05,33,6.90
2009,05,24,05,34,6.80
2009,05,24,05,35,6.80
2009,05,24,05,36,6.80
2009,05,24,05,37,6.80
2009,05,24,05,38,6.80
2009,05,24,05,39,6.80
2009,05,24,05,40,6.80
2009,05,24,05,41,6.80
2009,05,24,05,42,6.80
2009,05,24,05,43,6.90
2009,05,24,05,44,6.90
2009,05,24,05,45,6.90
2009,05,24,05,46,6.90
2009,05,24,05,47,6.80
2009,05,24,05,48,6.80
2009,05,24,05,49,6.80
2009,05,24,05,50,6.80
2009,05,24,05,51,6.80
2009,05,24,05,52,6.80
2009,05,24,05,53,6.80
2009,05,24,05,54,6.80
2009,05,24,05,55,6.80
2009,05,24,05,56,6.80
2009,05,24,05,57,6.80
2009,05,24,05,58,6.80
2009,05,24,05,59,6.80
2009,05,24,06,00,6.80
2009,05,24,06,01,6.90
2009,05,24,06,02,6.90
2009,05,24,06,03,6.90
2009,05,24,06,04,6.90
2009,05,24,06,05,7.00
2009,05,24,06,06,7.00
2009,05,24,06,07,7.10
2009,05,24,06,08,7.10
2009,05,24,06,09,7.20
2009,05,24,06,10,7.20
2009,05,24,06,11,7.20
2009,05,24,06,12,7.20
2009,05,24,06,13,7.30
2009,05,24,06,14,7.30
2009,05,24,06,15,7.40
2009,05,24,06,16,7.40
2009,05,24,06,17,7.50
2009,05,24,06,18,7.50
2009,05,24,06,19,7.60
2009,05,24,06,20,7.60
2009,05,24,06,21,7.70
2009,05,24,06,22,7.70
2009,05,24,06,23,7.70
2009,05,24,06,24,7.70
2009,05,24,06,25,7.80
2009,05,24,06,26,7.80
2009,05,24,06,27,7.80
2009,05,24,06,28,7.80
2009,05,24,06,29,7.80
2009,05,24,06,30,7.80
2009,05,24,06,31,7.80
2009,05,24,06,32,7.80
2009,05,24,06,33,7.90
2009,05,24,06,34,7.90
2009,05,24,06,35,7.90
2009,05,24,06,36,7.90
2009,05,24,06,37,8.00
2009,05,24,06,38,8.00
2009,05,24,06,39,8.00
2009,05,24,06,40,8.10
2009,05,24,06,41,8.10
2009,05,24,06,42,8.20
2009,05,24,06,43,8.20
2009,05,24,06,44,8.30
2009,05,24,06,45,8.30
2009,05,24,06,46,8.30
2009,05,24,06,47,8.40
2009,05,24,06,48,8.40
2009,05,24,06,49,8.40
2009,05,24,06,50,8.50
2009,05,24,06,51,8.50
2009,05,24,06,52,8.50
2009,05,24,06,53,8.60
2009,05,24,06,54,8.60
2009,05,24,06,55,8.70
2009,05,24,06,56,8.80
2009,05,24,06,57,8.80
2009,05,24,06,58,8.90
2009,05,24,06,59,9.00
2009,05,24,07,00,9.10
2009,05,24,07,01,9.10
2009,05,24,07,02,9.20
2009,05,24,07,03,9.30
2009,05,24,07,04,9.40
2009,05,24,07,05,9.50
2009,05,24,07,06,9.60
2009,05,24,07,07,9.70
2009,05,24,07,08,9.80
2009,05,24,07,09,9.90
2009,05,24,07,10,10.00
2009,05,24,07,11,10.10
2009,05,24,07,12,10.10
2009,05,24,07,13,10.20
2009,05,24,07,14,10.30
2009,05,24,07,15,10.40
2009,05,24,07,16,10.50
2009,05,24,07,17,10.50
2009,05,24,07,18,10.60
2009,05,24,07,19,10.70
2009,05,24,07,20,10.80
2009,05,24,07,21,11.00
2009,05,24,07,22,11.10
2009,05,24,07,23,11.20
2009,05,24,07,24,11.20
2009,05,24,07,25,11.30
2009,05,24,07,26,11.40
2009,05,24,07,27,11.40
2009,05,24,07,28,11.50
2009,05,24,07,29,11.60
2009,05,24,07,30,11.70
2009,05,24,07,31,11.80
2009,05,24,07,32,11.80
2009,05,24,07,33,11.90
2009,05,24,07,34,12.00
2009,05,24,07,35,12.10
2009,05,24,07,36,12.20
2009,05,24,07,37,12.20
2009,05,24,07,38,12.30
2009,05,24,07,39,12.40
2009,05,24,07,40,12.40
2009,05,24,07,41,12.50
2009,05,24,07,42,12.50
2009,05,24,07,43,12.40
2009,05,24,07,44,12.50
2009,05,24,07,45,12.50
2009,05,24,07,46,12.50
2009,05,24,07,47,12.60
2009,05,24,07,48,12.60
2009,05,24,07,49,12.60
2009,05,24,07,50,12.70
2009,05,24,07,51,12.70
2009,05,24,07,52,12.80
2009,05,24,07,53,12.80
2009,05,24,07,54,12.90
2009,05,24,07,55,13.00
2009,05,24,07,56,13.00
2009,05,24,07,57,13.10
2009,05,24,07,58,13.10
2009,05,24,07,59,13.10
2009,05,24,08,00,13.10
2009,05,24,08,01,13.10
2009,05,24,08,02,13.10
2009,05,24,08,03,13.20
2009,05,24,08,04,13.20
2009,05,24,08,05,13.20
2009,05,24,08,06,13.30
2009,05,24,08,07,13.30
2009,05,24,08,08,13.40
2009,05,24,08,09,13.40
2009,05,24,08,10,13.40
2009,05,24,08,11,13.40
2009,05,24,08,12,13.40
2009,05,24,08,13,13.50
2009,05,24,08,14,13.50
2009,05,24,08,15,13.50
2009,05,24,08,16,13.40
2009,05,24,08,17,13.30
2009,05,24,08,18,13.30
2009,05,24,08,19,13.30
2009,05,24,08,20,13.20
2009,05,24,08,21,13.20
2009,05,24,08,22,13.30
2009,05,24,08,23,13.30
2009,05,24,08,24,13.30
2009,05,24,08,25,13.30
2009,05,24,08,26,13.30
2009,05,24,08,27,13.30
2009,05,24,08,28,13.40
2009,05,24,08,29,13.40
2009,05,24,08,30,13.40
2009,05,24,08,31,13.50
2009,05,24,08,32,13.50
2009,05,24,08,33,13.50
2009,05,24,08,34,13.40
2009,05,24,08,35,13.40
2009,05,24,08,36,13.50
2009,05,24,08,37,13.50
2009,05,24,08,38,13.60
2009,05,24,08,39,13.60
2009,05,24,08,40,13.60
2009,05,24,08,41,13.70
2009,05,24,08,42,13.70
2009,05,24,08,43,13.60
2009,05,24,08,44,13.60
2009,05,24,08,45,13.60
2009,05,24,08,46,13.70
2009,05,24,08,47,13.70
2009,05,24,08,48,13.60
2009,05,24,08,49,13.60
2009,05,24,08,50,13.60
2009,05,24,08,51,13.70
2009,05,24,08,52,13.70
2009,05,24,08,53,13.70
2009,05,24,08,54,13.80
2009,05,24,08,55,13.80
2009,05,24,08,56,13.70
2009,05,24,08,57,13.70
2009,05,24,08,58,13.70
2009,05,24,08,59,13.60
2009,05,24,09,00,13.60
2009,05,24,09,01,13.60
2009,05,24,09,02,13.60
2009,05,24,09,03,13.60
2009,05,24,09,04,13.60
2009,05,24,09,05,13.50
2009,05,24,09,06,13.50
2009,05,24,09,07,13.40
2009,05,24,09,08,13.40
2009,05,24,09,09,13.40
2009,05,24,09,10,13.40
2009,05,24,09,11,13.40
2009,05,24,09,12,13.30
2009,05,24,09,13,13.30
2009,05,24,09,14,13.30
2009,05,24,09,15,13.30
2009,05,24,09,16,13.30
2009,05,24,09,17,13.40
2009,05,24,09,18,13.50
2009,05,24,09,19,13.60
2009,05,24,09,20,13.70
2009,05,24,09,21,13.80
2009,05,24,09,22,13.80
2009,05,24,09,23,13.90
2009,05,24,09,24,14.00
2009,05,24,09,25,14.10
2009,05,24,09,26,14.10
2009,05,24,09,27,14.10
2009,05,24,09,28,14.20
2009,05,24,09,29,14.20
2009,05,24,09,30,14.20
2009,05,24,09,31,14.10
2009,05,24,09,32,14.10
2009,05,24,09,33,14.10
2009,05,24,09,34,14.10
2009,05,24,09,35,14.10
2009,05,24,09,36,14.20
2009,05,24,09,37,14.20
2009,05,24,09,38,14.20
2009,05,24,09,39,14.20
2009,05,24,09,40,14.20
2009,05,24,09,41,14.20
2009,05,24,09,42,14.30
2009,05,24,09,43,14.40
2009,05,24,09,44,14.50
2009,05,24,09,45,14.60
2009,05,24,09,46,14.50
2009,05,24,09,47,14.40
2009,05,24,09,48,14.40
2009,05,24,09,49,14.40
2009,05,24,09,50,14.50
2009,05,24,09,51,14.60
2009,05,24,09,52,14.70
2009,05,24,09,53,14.80
2009,05,24,09,54,15.00
2009,05,24,09,55,15.00
2009,05,24,09,56,15.00
2009,05,24,09,57,15.00
2009,05,24,09,58,15.10
2009,05,24,09,59,15.30
2009,05,24,10,00,15.40
2009,05,24,10,01,15.50
2009,05,24,10,02,15.50
2009,05,24,10,03,15.40
2009,05,24,10,04,15.40
2009,05,24,10,05,15.50
2009,05,24,10,06,15.60
2009,05,24,10,07,15.70
2009,05,24,10,08,15.80
2009,05,24,10,09,15.80
2009,05,24,10,10,15.80
2009,05,24,10,11,15.80
2009,05,24,10,12,15.80
2009,05,24,10,13,15.60
2009,05,24,10,14,15.50
2009,05,24,10,15,15.40
2009,05,24,10,16,15.40
2009,05,24,10,17,15.30
2009,05,24,10,18,15.40
2009,05,24,10,19,15.40
2009,05,24,10,20,15.40
2009,05,24,10,21,15.40
2009,05,24,10,22,15.50
2009,05,24,10,23,15.60
2009,05,24,10,24,15.70
2009,05,24,10,25,15.70
2009,05,24,10,26,15.70
2009,05,24,10,27,15.60
2009,05,24,10,28,15.50
2009,05,24,10,29,15.40
2009,05,24,10,30,15.30
2009,05,24,10,31,15.30
2009,05,24,10,32,15.30
2009,05,24,10,33,15.30
2009,05,24,10,34,15.30
2009,05,24,10,35,15.30
2009,05,24,10,36,15.40
2009,05,24,10,37,15.40
2009,05,24,10,38,15.50
2009,05,24,10,39,15.50
2009,05,24,10,40,15.60
2009,05,24,10,41,15.80
2009,05,24,10,42,15.90
2009,05,24,10,43,16.10
2009,05,24,10,44,16.10
2009,05,24,10,45,16.10
2009,05,24,10,46,16.00
2009,05,24,10,47,15.90
2009,05,24,10,48,15.80
2009,05,24,10,49,15.80
2009,05,24,10,50,15.70
2009,05,24,10,51,15.60
2009,05,24,10,52,15.60
2009,05,24,10,53,15.40
2009,05,24,10,54,15.40
2009,05,24,10,55,15.30
2009,05,24,10,56,15.40
2009,05,24,10,57,15.40
2009,05,24,10,58,15.50
2009,05,24,10,59,15.60
2009,05,24,11,00,15.60
2009,05,24,11,01,15.60
2009,05,24,11,02,15.60
2009,05,24,11,03,15.70
2009,05,24,11,04,15.70
2009,05,24,11,05,15.60
2009,05,24,11,06,15.60
2009,05,24,11,07,15.50
2009,05,24,11,08,15.40
2009,05,24,11,09,15.30
2009,05,24,11,10,15.40
2009,05,24,11,11,15.40
2009,05,24,11,12,15.30
2009,05,24,11,13,15.30
2009,05,24,11,14,15.20
2009,05,24,11,15,15.10
2009,05,24,11,16,15.00
2009,05,24,11,17,15.00
2009,05,24,11,18,15.00
2009,05,24,11,19,15.00
2009,05,24,11,20,15.00
2009,05,24,11,21,15.00
2009,05,24,11,22,15.00
2009,05,24,11,23,15.00
2009,05,24,11,24,15.00
2009,05,24,11,25,15.00
2009,05,24,11,26,15.00
2009,05,24,11,27,15.00
2009,05,24,11,28,15.00
2009,05,24,11,29,14.90
2009,05,24,11,30,14.80
2009,05,24,11,31,14.80
2009,05,24,11,32,14.70
2009,05,24,11,33,14.70
2009,05,24,11,34,14.70
2009,05,24,11,35,14.70
2009,05,24,11,36,14.60
2009,05,24,11,37,14.60
2009,05,24,11,38,14.60
2009,05,24,11,39,14.70
2009,05,24,11,40,14.70
2009,05,24,11,41,14.80
2009,05,24,11,42,14.80
2009,05,24,11,43,14.90
2009,05,24,11,44,14.90
2009,05,24,11,45,15.00
2009,05,24,11,46,15.00
2009,05,24,11,47,15.00
2009,05,24,11,48,15.00
2009,05,24,11,49,15.00
2009,05,24,11,50,14.90
2009,05,24,11,51,14.80
2009,05,24,11,52,14.70
2009,05,24,11,53,14.70
2009,05,24,11,54,14.70
2009,05,24,11,55,14.70
2009,05,24,11,56,14.80
2009,05,24,11,57,14.80
2009,05,24,11,58,14.80
2009,05,24,11,59,14.80
2009,05,24,12,00,14.80
2009,05,24,12,01,14.80
2009,05,24,12,02,14.80
2009,05,24,12,03,14.70
2009,05,24,12,04,14.70
2009,05,24,12,05,14.70
2009,05,24,12,06,14.70
2009,05,24,12,07,14.70
2009,05,24,12,08,14.70
2009,05,24,12,09,14.70
2009,05,24,12,10,14.80
2009,05,24,12,11,14.80
2009,05,24,12,12,14.80
2009,05,24,12,13,14.80
2009,05,24,12,14,14.80
2009,05,24,12,15,14.90
2009,05,24,12,16,14.90
2009,05,24,12,17,15.00
2009,05,24,12,18,15.00
2009,05,24,12,19,15.00
2009,05,24,12,20,15.00
2009,05,24,12,21,15.00
2009,05,24,12,22,15.00
2009,05,24,12,23,15.00
2009,05,24,12,24,15.00
2009,05,24,12,25,15.00
2009,05,24,12,26,15.00
2009,05,24,12,27,15.00
2009,05,24,12,28,15.00
2009,05,24,12,29,15.00
2009,05,24,12,30,15.00
2009,05,24,12,31,15.00
2009,05,24,12,32,15.00
2009,05,24,12,33,15.00
2009,05,24,12,34,14.90
2009,05,24,12,35,14.80
2009,05,24,12,36,14.80
2009,05,24,12,37,14.90
2009,05,24,12,38,14.80
2009,05,24,12,39,14.70
2009,05,24,12,40,14.60
2009,05,24,12,41,14.60
2009,05,24,12,42,14.60
2009,05,24,12,43,14.60
2009,05,24,12,44,14.70
2009,05,24,12,45,14.70
2009,05,24,12,46,14.70
2009,05,24,12,47,14.70
2009,05,24,12,48,14.70
2009,05,24,12,49,14.60
2009,05,24,12,50,14.60
2009,05,24,12,51,14.60
2009,05,24,12,52,14.70
2009,05,24,12,53,14.70
2009,05,24,12,54,14.70
2009,05,24,12,55,14.70
2009,05,24,12,56,14.70
2009,05,24,12,57,14.80
2009,05,24,12,58,14.80
2009,05,24,12,59,14.80
2009,05,24,13,00,14.90
2009,05,24,13,01,15.00
2009,05,24,13,02,15.00
2009,05,24,13,03,15.00
2009,05,24,13,04,15.00
2009,05,24,13,05,15.00
2009,05,24,13,06,15.10
2009,05,24,13,07,15.20
2009,05,24,13,08,15.30
2009,05,24,13,09,15.40
2009,05,24,13,10,15.40
2009,05,24,13,11,15.40
2009,05,24,13,12,15.40
2009,05,24,13,13,15.50
2009,05,24,13,14,15.50
2009,05,24,13,15,15.40
2009,05,24,13,16,15.50
2009,05,24,13,17,15.60
2009,05,24,13,18,15.70
2009,05,24,13,19,15.80
2009,05,24,13,20,15.80
2009,05,24,13,21,15.70
2009,05,24,13,22,15.70
2009,05,24,13,23,15.70
2009,05,24,13,24,15.70
2009,05,24,13,25,15.60
2009,05,24,13,26,15.60
2009,05,24,13,27,15.60
2009,05,24,13,28,15.60
2009,05,24,13,29,15.60
2009,05,24,13,30,15.70
2009,05,24,13,31,15.80
2009,05,24,13,32,15.90
2009,05,24,13,33,15.90
2009,05,24,13,34,15.90
2009,05,24,13,35,15.90
2009,05,24,13,36,15.80
2009,05,24,13,37,15.70
2009,05,24,13,38,15.70
2009,05,24,13,39,15.60
2009,05,24,13,40,15.60
2009,05,24,13,41,15.60
2009,05,24,13,42,15.70
2009,05,24,13,43,15.80
2009,05,24,13,44,15.70
2009,05,24,13,45,15.80
2009,05,24,13,46,15.70
2009,05,24,13,47,15.70
2009,05,24,13,48,15.60
2009,05,24,13,49,15.60
2009,05,24,13,50,15.60
2009,05,24,13,51,15.60
2009,05,24,13,52,15.60
2009,05,24,13,53,15.60
2009,05,24,13,54,15.50
2009,05,24,13,55,15.50
2009,05,24,13,56,15.40
2009,05,24,13,57,15.40
2009,05,24,13,58,15.30
2009,05,24,13,59,15.40
2009,05,24,14,00,15.50
2009,05,24,14,01,15.60
2009,05,24,14,02,15.70
2009,05,24,14,03,15.80
2009,05,24,14,04,15.80
2009,05,24,14,05,15.80
2009,05,24,14,06,15.70
2009,05,24,14,07,15.70
2009,05,24,14,08,15.70
2009,05,24,14,09,15.70
2009,05,24,14,10,15.70
2009,05,24,14,11,15.70
2009,05,24,14,12,15.80
2009,05,24,14,13,15.90
2009,05,24,14,14,15.90
2009,05,24,14,15,15.90
2009,05,24,14,16,15.80
2009,05,24,14,17,15.90
2009,05,24,14,18,15.80
2009,05,24,14,19,15.90
2009,05,24,14,20,15.90
2009,05,24,14,21,15.80
2009,05,24,14,22,15.70
2009,05,24,14,23,15.70
2009,05,24,14,24,15.70
2009,05,24,14,25,15.70
2009,05,24,14,26,15.70
2009,05,24,14,27,15.70
2009,05,24,14,28,15.70
2009,05,24,14,29,15.80
2009,05,24,14,30,15.80
2009,05,24,14,31,15.90
2009,05,24,14,32,15.90
2009,05,24,14,33,15.90
2009,05,24,14,34,16.00
2009,05,24,14,35,16.00
2009,05,24,14,36,15.90
2009,05,24,14,37,15.90
2009,05,24,14,38,15.80
2009,05,24,14,39,15.80
2009,05,24,14,40,15.80
2009,05,24,14,41,15.80
2009,05,24,14,42,15.70
2009,05,24,14,43,15.70
2009,05,24,14,44,15.70
2009,05,24,14,45,15.60
2009,05,24,14,46,15.60
2009,05,24,14,47,15.60
2009,05,24,14,48,15.60
2009,05,24,14,49,15.60
2009,05,24,14,50,15.60
2009,05,24,14,51,15.60
2009,05,24,14,52,15.60
2009,05,24,14,53,15.60
2009,05,24,14,54,15.60
2009,05,24,14,55,15.60
2009,05,24,14,56,15.50
2009,05,24,14,57,15.50
2009,05,24,14,58,15.50
2009,05,24,14,59,15.50
2009,05,24,15,00,15.50
2009,05,24,15,01,15.40
2009,05,24,15,02,15.40
2009,05,24,15,03,15.40
2009,05,24,15,04,15.30
2009,05,24,15,05,15.30
2009,05,24,15,06,15.30
2009,05,24,15,07,15.30
2009,05,24,15,08,15.30
2009,05,24,15,09,15.30
2009,05,24,15,10,15.30
2009,05,24,15,11,15.30
2009,05,24,15,12,15.30
2009,05,24,15,13,15.30
2009,05,24,15,14,15.30
2009,05,24,15,15,15.20
2009,05,24,15,16,15.00
2009,05,24,15,17,15.00
2009,05,24,15,18,15.00
2009,05,24,15,19,15.00
2009,05,24,15,20,15.00
2009,05,24,15,21,14.90
2009,05,24,15,22,14.90
2009,05,24,15,23,15.00
2009,05,24,15,24,15.00
2009,05,24,15,25,15.00
2009,05,24,15,26,15.00
2009,05,24,15,27,15.00
2009,05,24,15,28,15.00
2009,05,24,15,29,15.00
2009,05,24,15,30,15.00
2009,05,24,15,31,15.00
2009,05,24,15,32,15.10
2009,05,24,15,33,15.20
2009,05,24,15,34,15.30
2009,05,24,15,35,15.30
2009,05,24,15,36,15.30
2009,05,24,15,37,15.30
2009,05,24,15,38,15.30
2009,05,24,15,39,15.40
2009,05,24,15,40,15.30
2009,05,24,15,41,15.30
2009,05,24,15,42,15.00
2009,05,24,15,43,14.90
2009,05,24,15,44,14.80
2009,05,24,15,45,14.70
2009,05,24,15,46,14.70
2009,05,24,15,47,14.60
2009,05,24,15,48,14.50
2009,05,24,15,49,14.50
2009,05,24,15,50,14.60
2009,05,24,15,51,14.60
2009,05,24,15,52,14.50
2009,05,24,15,53,14.30
2009,05,24,15,54,14.20
2009,05,24,15,55,14.10
2009,05,24,15,56,14.00
2009,05,24,15,57,14.00
2009,05,24,15,58,13.90
2009,05,24,15,59,13.90
2009,05,24,16,00,14.00
2009,05,24,16,01,14.00
2009,05,24,16,02,14.10
2009,05,24,16,03,14.20
2009,05,24,16,04,14.30
2009,05,24,16,05,14.40
2009,05,24,16,06,14.50
2009,05,24,16,07,14.70
2009,05,24,16,08,14.90
2009,05,24,16,09,14.90
2009,05,24,16,10,15.00
2009,05,24,16,11,15.00
2009,05,24,16,12,15.00
2009,05,24,16,13,15.00
2009,05,24,16,14,15.00
2009,05,24,16,15,14.90
2009,05,24,16,16,14.90
2009,05,24,16,17,14.80
2009,05,24,16,18,14.70
2009,05,24,16,19,14.70
2009,05,24,16,20,14.70
2009,05,24,16,21,14.70
2009,05,24,16,22,14.60
2009,05,24,16,23,14.50
2009,05,24,16,24,14.40
2009,05,24,16,25,14.30
2009,05,24,16,26,14.20
2009,05,24,16,27,14.20
2009,05,24,16,28,14.20
2009,05,24,16,29,14.30
2009,05,24,16,30,14.20
2009,05,24,16,31,14.30
2009,05,24,16,32,14.30
2009,05,24,16,33,14.40
2009,05,24,16,34,14.40
2009,05,24,16,35,14.40
2009,05,24,16,36,14.40
2009,05,24,16,37,14.40
2009,05,24,16,38,14.40
2009,05,24,16,39,14.50
2009,05,24,16,40,14.60
2009,05,24,16,41,14.60
2009,05,24,16,42,14.70
2009,05,24,16,43,14.70
2009,05,24,16,44,14.70
2009,05,24,16,45,14.90
2009,05,24,16,46,15.00
2009,05,24,16,47,15.00
2009,05,24,16,48,15.20
2009,05,24,16,49,15.20
2009,05,24,16,50,15.30
2009,05,24,16,51,15.40
2009,05,24,16,52,15.60
2009,05,24,16,53,15.70
2009,05,24,16,54,15.80
2009,05,24,16,55,15.90
2009,05,24,16,56,16.00
2009,05,24,16,57,16.10
2009,05,24,16,58,16.20
2009,05,24,16,59,16.20
2009,05,24,17,00,16.30
2009,05,24,17,01,16.40
2009,05,24,17,02,16.50
2009,05,24,17,03,16.70
2009,05,24,17,04,16.80
2009,05,24,17,05,16.80
2009,05,24,17,06,16.90
2009,05,24,17,07,17.00
2009,05,24,17,08,17.10
2009,05,24,17,09,17.20
2009,05,24,17,10,17.30
2009,05,24,17,11,17.30
2009,05,24,17,12,17.30
2009,05,24,17,13,17.30
2009,05,24,17,14,17.40
2009,05,24,17,15,17.50
2009,05,24,17,16,17.60
2009,05,24,17,17,17.70
2009,05,24,17,18,17.70
2009,05,24,17,19,17.80
2009,05,24,17,20,17.90
2009,05,24,17,21,18.00
2009,05,24,17,22,18.10
2009,05,24,17,23,18.20
2009,05,24,17,24,18.30
2009,05,24,17,25,18.40
2009,05,24,17,26,18.40
2009,05,24,17,27,18.50
2009,05,24,17,28,18.60
2009,05,24,17,29,18.70
2009,05,24,17,30,18.80
2009,05,24,17,31,18.90
2009,05,24,17,32,19.00
2009,05,24,17,33,19.10
2009,05,24,17,34,19.20
2009,05,24,17,35,19.30